Powrót do katalogu

THORAD AGENA D DEB

AktywnyPO
NORAD 5347·DEBRIS·🇺🇸 United States

Wystrzelony Apr 8, 1970 z Vandenberg Space Force Base

Loading…

Następne Przeloty (najbliższe 24 godziny)

TLE

ŚwieżeSource: Space-Track

Epoka: Sep 14, 2026, 05:20 UTC

1 05347U 70025KL  26257.22238005  .00000484  00000-0  45128-3 0  9996
2 05347  99.9055 177.5425 0044450 321.6524 198.1382 13.87120810769251

Śledź THORAD AGENA D DEB w czasie rzeczywistym z AllMySat

Download on the App Store